Temp
59 67 68 65 68 68 61 58 55 61 66 69 73 75 76 77 79 79 79 80 80 80 78 78 80 82 82 83 83 83 81 80 80 80 80 79 76 76 76 74 70 68 66 67
57 68 68 63 69 68 67 66 62 65 65 69 72 75 76 77 78 77 78 80 80 80 81 80 83 80 84 83 81 82 82 81 81 79 78 77 76 76 75 72 73 70 68 66
51 61 62 57 62 64 64 64 62 57 59 67 72 76 74 75 77 77 78 79 79 78 78 79 79 84 81 83 82 81 81 81 77 78 77 75 77 76 74 69 69 68 68 68
50 53 46 58 66 70 63 64 65 63 61 63 69 71 70 69 68 77 78 78 78 79 80 79 80 81 80 78 77 77 76 77 77 77 76 74 74 73 72 69 66 66 66 68
49 46 53 61 63 63 59 57 65 61 62 64 66 75 69 72 69 72 77 78 79 80 79 78 79 80 81 78 77 77 76 75 75 74 72 71 71 71 70 67 66 67 67 67
49 46 44 56 64 68 68 54 66 64 61 61 62 55 56 65 69 71 77 79 78 78 78 77 76 77 75 75 75 75 75 74 72 72 71 70 69 68 67 67 67 68 67 66
48 48 54 61 65 67 55 53 64 64 62 61 57 58 62 67 69 73 72 75 79 77 74 75 75 75 74 75 74 74 72 70 70 70 70 69 68 67 66 65 66 68 66 65
48 47 47 65 65 58 59 61 64 65 63 62 64 64 67 70 71 72 70 73 78 75 74 75 74 73 73 72 72 71 70 69 70 69 70 69 68 68 67 67 66 65 64 62
52 51 58 60 61 62 62 59 63 66 67 66 67 66 65 65 68 67 73 71 72 73 72 72 73 72 72 72 72 72 70 68 69 70 70 70 69 68 68 67 66 64 61 61
52 56 58 63 64 63 64 63 65 67 68 69 68 69 68 67 66 67 68 69 73 74 71 70 71 71 73 73 73 72 69 69 69 69 68 68 68 68 67 66 65 64 62 58
51 56 59 63 65 64 66 67 70 70 71 71 70 69 71 71 72 73 72 76 74 72 70 70 70 70 71 73 73 70 70 69 69 69 68 65 61 61 65 65 64 63 59 60
49 57 56 59 64 66 65 70 76 75 74 73 71 71 77 75 76 74 75 74 72 72 70 69 69 70 71 71 71 70 69 68 66 66 66 63 60 57 52 54 56 57 56 60
60 61 61 64 68 70 68 70 74 73 71 70 73 74 73 73 73 71 72 73 72 72 70 70 69 69 71 72 71 70 68 68 66 65 66 62 61 62 61 56 50 51 52 53
64 62 66 68 66 69 72 72 72 74 75 75 75 76 73 72 71 71 71 74 73 71 69 70 69 69 70 71 70 69 68 62 67 65 65 63 63 61 61 64 62 59 50 51
65 66 66 64 70 70 72 72 72 72 73 73 74 72 72 71 70 70 71 71 71 66 65 66 67 68 70 70 71 70 70 66 66 66 65 64 66 65 62 63 64 59 55 52
68 68 67 66 66 70 71 71 69 69 71 72 71 71 71 71 70 68 68 70 68 64 64 64 64 65 67 71 70 70 68 66 64 65 64 64 64 63 61 60 60 58 58 58
65 62 65 66 66 67 67 68 70 71 69 69 71 71 70 69 65 67 66 67 69 68 64 64 66 68 67 70 70 69 67 65 65 64 63 64 67 65 66 64 60 59 59 57
69 68 66 67 66 66 67 69 71 70 67 66 68 67 67 66 65 66 68 68 68 68 66 66 67 68 69 69 67 66 66 65 64 64 64 65 66 67 65 64 61 60 60 58
71 69 69 70 68 67 67 66 66 67 66 65 65 64 63 63 64 66 65 65 66 66 68 68 67 69 68 67 67 66 65 64 64 64 64 63 65 66 65 64 62 62 60 59
69 69 69 69 70 68 67 67 67 67 68 65 65 64 63 62 65 67 66 66 66 66 68 68 67 67 68 67 66 65 64 64 63 62 63 65 63 65 65 60 62 62 59 57
66 68 67 67 66 66 67 66 65 64 65 65 64 63 61 61 63 63 65 64 66 67 66 65 66 65 66 65 65 64 64 63 63 65 64 64 63 64 63 64 62 61 60 60
64 65 65 65 64 63 65 64 65 64 65 63 62 62 62 61 63 66 66 66 66 62 64 64 65 65 65 65 63 62 62 63 64 64 63 63 64 62 63 62 60 60 60 61
62 63 63 63 62 62 63 64 64 63 63 64 64 64 64 64 64 64 64 67 65 62 64 64 62 62 62 62 61 60 59 59 62 63 64 64 63 64 62 61 60 60 60 61
61 62 62 64 63 61 60 62 63 63 62 64 64 63 64 64 64 65 64 61 58 60 62 59 60 59 60 60 60 58 57 56 56 61 61 54 60 61 61 60 60 62 63 64
61 61 61 61 60 60 60 60 61 62 62 62 64 65 70 66 65 66 64 61 57 61 61 58 58 57 59 58 57 56 55 54 55 59 59 58 59 60 58 62 63 62 65 66
59 60 60 61 60 60 61 60 59 61 61 61 62 63 65 65 65 64 63 60 62 60 61 59 57 57 58 58 56 55 53 53 57 58 57 58 58 59 61 60 60 60 61 62
61 57 59 59 60 61 61 61 59 60 60 61 61 63 64 65 66 64 62 63 63 61 61 59 59 58 57 56 55 54 55 58 55 58 59 58 59 59 61 62 62 63 62 62
MSLP
1006.27 1005.68 1005.20 1005.85 1006.02 1006.09 1006.16 1006.11 1005.68 1004.80 1004.06 1003.45 1002.54 1002.21 1002.17 1002.23 1002.31 1002.67 1002.85 1002.87 1003.01 1003.20 1003.43 1003.75 1004.12 1004.35 1004.66 1004.82 1005.32 1005.85 1006.58 1007.18 1007.41 1007.94 1008.47 1009.19 1010.31 1010.99 1011.83 1012.30 1013.22 1014.03 1014.07 1014.02
1007.01 1006.11 1005.74 1006.41 1006.58 1006.83 1006.89 1006.40 1005.30 1004.73 1004.33 1003.33 1002.57 1002.11 1002.61 1003.00 1003.05 1003.27 1003.32 1003.43 1003.23 1003.04 1003.26 1003.48 1003.49 1003.88 1004.02 1004.40 1004.79 1005.44 1005.96 1006.23 1006.86 1007.40 1007.90 1008.80 1009.92 1010.40 1010.95 1011.96 1012.59 1012.63 1013.30 1013.64
1007.91 1007.04 1006.48 1006.99 1007.35 1007.52 1008.12 1008.26 1007.38 1007.65 1008.01 1006.16 1004.32 1003.45 1004.00 1004.01 1003.88 1004.12 1004.00 1003.92 1003.65 1003.44 1003.05 1002.80 1003.12 1003.06 1003.52 1003.71 1004.19 1004.84 1005.30 1005.79 1006.24 1006.82 1007.50 1008.33 1009.02 1009.81 1010.73 1011.77 1012.31 1012.93 1013.52 1014.33
1009.12 1008.20 1008.08 1007.89 1007.67 1007.77 1008.82 1009.54 1009.13 1009.24 1008.91 1007.91 1006.46 1005.79 1005.36 1005.64 1005.99 1004.91 1004.58 1004.50 1004.39 1004.05 1003.38 1003.08 1002.81 1002.90 1003.27 1003.73 1004.18 1004.54 1005.05 1005.43 1005.93 1006.60 1007.27 1007.93 1008.81 1009.72 1010.55 1011.44 1011.94 1012.62 1013.08 1013.14
1010.07 1009.72 1009.19 1008.40 1008.59 1008.66 1008.85 1009.95 1010.24 1010.44 1009.48 1008.57 1007.20 1005.68 1006.22 1006.55 1007.40 1006.75 1005.13 1004.89 1004.89 1004.74 1004.43 1003.84 1003.29 1002.79 1002.79 1003.33 1003.69 1004.35 1004.87 1005.38 1005.92 1006.45 1007.15 1007.86 1008.65 1009.46 1010.11 1011.03 1011.92 1012.39 1012.93 1013.06
1010.84 1010.67 1010.05 1009.30 1009.14 1008.85 1008.80 1010.08 1010.44 1010.10 1010.03 1010.05 1008.42 1009.12 1009.49 1008.62 1008.00 1007.49 1007.15 1005.54 1005.30 1005.04 1004.83 1004.47 1004.17 1003.55 1003.59 1003.77 1004.08 1004.52 1004.97 1005.43 1005.91 1006.33 1006.87 1007.80 1008.54 1009.26 1009.95 1011.01 1011.50 1011.93 1012.83 1012.91
1011.42 1011.08 1010.35 1009.47 1009.19 1008.88 1009.30 1010.97 1010.33 1010.22 1010.67 1010.49 1011.23 1011.47 1010.53 1009.51 1008.14 1007.62 1007.84 1007.59 1005.88 1005.93 1005.67 1005.53 1005.19 1004.62 1004.54 1004.77 1005.17 1005.27 1005.39 1005.92 1006.56 1007.03 1007.40 1007.98 1008.87 1009.50 1010.15 1011.19 1011.84 1012.33 1012.74 1012.86
1012.17 1011.59 1010.76 1009.77 1009.25 1009.53 1010.35 1010.32 1009.96 1010.10 1010.22 1011.11 1010.73 1009.87 1010.14 1009.54 1008.84 1007.67 1007.52 1007.68 1007.66 1006.41 1006.77 1006.66 1006.31 1005.96 1005.87 1005.94 1005.95 1005.98 1006.23 1006.63 1007.19 1007.79 1008.28 1008.85 1009.45 1010.04 1010.30 1010.93 1011.30 1012.12 1012.86 1013.65
1012.79 1011.73 1011.06 1010.44 1010.36 1010.12 1010.05 1010.28 1010.05 1009.95 1009.70 1009.95 1010.54 1010.19 1008.69 1010.33 1010.34 1008.82 1007.41 1007.49 1008.41 1008.69 1007.39 1007.41 1007.34 1006.90 1006.62 1006.66 1006.76 1006.87 1007.15 1007.61 1007.80 1008.24 1008.57 1009.11 1009.71 1010.43 1010.92 1011.52 1011.91 1012.10 1012.78 1013.44
1012.78 1011.50 1011.04 1010.28 1010.02 1010.33 1010.06 1009.56 1009.65 1009.35 1009.16 1009.45 1009.59 1009.66 1009.91 1009.33 1010.02 1009.34 1007.20 1007.65 1007.55 1007.26 1007.55 1007.74 1007.65 1007.13 1006.92 1007.04 1007.15 1007.47 1007.76 1008.17 1008.44 1008.66 1009.05 1009.46 1009.66 1010.37 1010.84 1011.30 1011.79 1012.28 1012.99 1013.49
1012.43 1011.34 1010.82 1010.27 1010.07 1009.78 1009.28 1008.78 1008.73 1008.60 1008.17 1008.41 1009.05 1008.89 1008.89 1008.43 1007.50 1007.44 1007.42 1006.99 1006.85 1006.91 1007.31 1007.64 1007.67 1007.57 1007.19 1007.40 1007.39 1007.89 1008.20 1008.45 1008.81 1009.20 1009.49 1009.89 1010.36 1010.75 1010.99 1010.86 1011.12 1011.81 1012.44 1013.05
1011.62 1011.01 1011.00 1010.35 1009.89 1009.36 1009.00 1008.14 1007.52 1007.03 1006.77 1007.08 1008.01 1007.97 1007.29 1006.45 1006.11 1006.45 1006.06 1006.12 1006.87 1007.02 1007.65 1007.77 1007.67 1007.52 1007.50 1007.67 1007.60 1007.96 1008.42 1008.65 1009.02 1009.59 1010.14 1010.34 1010.47 1010.96 1010.93 1010.78 1010.99 1011.32 1011.75 1012.32
1009.62 1009.57 1009.77 1009.71 1009.63 1009.21 1009.09 1008.51 1007.64 1007.24 1006.95 1006.82 1006.23 1006.43 1005.82 1005.96 1005.69 1005.59 1005.90 1006.30 1006.85 1007.03 1007.27 1007.37 1007.36 1007.41 1007.43 1007.44 1007.67 1008.13 1008.27 1008.55 1008.90 1009.44 1010.07 1010.57 1010.65 1010.61 1010.90 1011.19 1011.06 1011.36 1011.71 1012.09
1008.85 1008.99 1008.99 1008.53 1008.66 1008.76 1008.48 1008.24 1007.68 1007.28 1006.95 1006.57 1005.97 1005.07 1005.05 1005.56 1005.66 1005.85 1006.14 1005.65 1006.18 1006.59 1006.92 1006.87 1007.03 1006.98 1006.96 1006.94 1007.53 1008.21 1008.57 1008.72 1008.95 1009.23 1009.41 1010.14 1010.52 1010.58 1010.52 1010.89 1011.28 1011.91 1012.29 1012.62
1008.53 1008.38 1008.28 1008.38 1007.97 1007.92 1007.88 1007.72 1007.42 1006.97 1006.68 1006.29 1005.73 1005.52 1005.47 1005.62 1005.49 1005.35 1005.50 1005.85 1005.85 1006.52 1006.69 1006.69 1006.94 1006.98 1006.93 1007.19 1007.14 1007.80 1008.14 1008.37 1008.13 1008.64 1009.21 1009.62 1010.04 1010.24 1010.57 1010.77 1011.07 1011.77 1012.41 1012.83
1007.84 1008.19 1008.26 1008.28 1008.52 1007.63 1007.42 1007.46 1007.58 1007.45 1007.05 1006.68 1006.31 1005.89 1005.40 1005.11 1004.89 1005.27 1005.51 1005.51 1006.14 1006.52 1006.65 1006.75 1006.55 1006.49 1006.28 1006.73 1006.78 1007.07 1007.39 1007.87 1007.89 1008.21 1008.65 1009.14 1009.63 1009.91 1010.46 1010.79 1011.12 1011.64 1012.24 1012.66
1007.67 1008.01 1007.66 1008.45 1007.96 1007.76 1007.65 1007.51 1007.36 1006.99 1007.02 1006.67 1006.31 1006.06 1005.89 1005.58 1006.03 1005.83 1005.75 1005.94 1005.71 1006.41 1006.21 1006.24 1005.94 1005.54 1005.89 1006.23 1006.75 1006.86 1007.18 1007.55 1007.91 1007.99 1008.29 1008.60 1008.88 1009.40 1010.02 1010.44 1010.96 1011.49 1011.87 1012.33
1006.94 1007.32 1007.68 1007.79 1007.71 1007.68 1007.60 1007.52 1007.40 1007.38 1007.46 1007.20 1006.69 1006.49 1006.28 1006.42 1006.10 1005.78 1005.34 1005.28 1005.58 1005.53 1005.43 1005.47 1005.75 1005.90 1005.79 1006.05 1006.57 1006.90 1007.09 1007.23 1007.61 1007.99 1008.24 1008.51 1008.68 1008.85 1009.30 1009.92 1010.46 1011.25 1011.78 1012.20
1006.83 1007.35 1007.60 1007.74 1007.75 1007.80 1007.88 1007.94 1007.90 1007.48 1007.25 1007.11 1006.96 1006.76 1006.63 1006.52 1006.28 1005.95 1005.99 1005.98 1005.79 1005.94 1005.79 1005.67 1005.35 1005.34 1005.63 1005.87 1006.37 1006.76 1007.20 1007.45 1007.68 1008.02 1008.17 1008.22 1008.38 1008.38 1008.79 1009.35 1010.00 1010.63 1011.30 1011.86
1007.49 1007.62 1007.81 1008.06 1008.15 1008.28 1008.41 1008.31 1008.15 1007.88 1007.62 1007.23 1007.00 1006.77 1006.56 1006.59 1006.36 1005.93 1005.83 1005.71 1005.87 1005.34 1005.26 1005.36 1005.34 1005.48 1005.81 1005.94 1006.14 1006.49 1006.98 1007.38 1007.56 1007.88 1008.08 1008.12 1008.14 1008.18 1008.29 1008.62 1009.36 1010.18 1010.72 1011.31
1007.74 1007.77 1008.11 1008.41 1008.68 1008.76 1008.70 1008.47 1008.36 1008.16 1007.72 1007.57 1007.44 1007.07 1006.79 1006.71 1006.77 1006.36 1005.92 1005.94 1005.41 1005.27 1005.15 1005.32 1005.61 1005.85 1005.70 1005.85 1006.17 1006.66 1007.24 1007.30 1007.29 1007.36 1007.67 1007.95 1008.06 1007.97 1007.99 1008.44 1009.01 1009.55 1010.24 1010.73
1008.22 1008.30 1008.43 1008.64 1008.89 1008.96 1008.77 1008.53 1008.29 1008.04 1007.84 1007.70 1007.52 1007.23 1006.84 1006.51 1006.24 1005.87 1005.50 1005.49 1005.06 1005.26 1005.64 1005.69 1005.66 1005.87 1005.87 1005.99 1006.52 1006.97 1007.09 1007.18 1007.24 1007.35 1007.71 1007.80 1007.71 1007.82 1007.99 1008.33 1008.78 1009.42 1009.94 1010.24
1008.85 1008.78 1008.82 1008.93 1009.03 1009.01 1008.79 1008.47 1008.18 1007.99 1007.77 1007.42 1007.19 1006.99 1006.71 1006.24 1006.07 1005.77 1005.59 1005.10 1004.99 1004.95 1005.24 1005.36 1005.66 1006.06 1006.15 1006.32 1006.80 1007.18 1007.42 1007.42 1007.30 1007.28 1007.32 1007.38 1007.40 1007.55 1007.74 1008.01 1008.36 1008.72 1009.34 1010.04
1009.00 1009.01 1009.02 1008.93 1008.92 1008.95 1008.94 1008.45 1008.04 1007.65 1007.53 1007.14 1006.53 1006.06 1006.18 1006.00 1005.64 1005.38 1005.34 1004.97 1004.87 1005.51 1005.35 1005.76 1006.01 1006.02 1006.20 1006.63 1006.98 1007.28 1007.34 1007.21 1007.18 1007.11 1007.13 1007.21 1007.38 1007.38 1007.45 1007.61 1007.98 1008.54 1008.95 1009.51
1009.09 1009.03 1008.99 1008.98 1009.02 1008.96 1008.68 1008.39 1008.23 1007.74 1007.38 1007.00 1006.55 1005.96 1005.52 1005.24 1005.37 1005.20 1005.19 1005.19 1005.35 1005.58 1005.93 1005.91 1005.80 1006.03 1006.30 1006.53 1006.83 1007.08 1007.26 1007.31 1007.12 1006.82 1006.92 1007.04 1007.08 1007.09 1007.34 1007.22 1007.42 1008.08 1008.68 1009.24
1008.96 1008.88 1008.70 1008.57 1008.49 1008.38 1008.28 1008.10 1008.01 1007.58 1007.27 1006.96 1006.40 1005.78 1005.49 1005.28 1005.21 1005.09 1005.25 1005.43 1005.44 1005.55 1005.67 1005.85 1005.83 1006.05 1006.29 1006.56 1006.90 1007.07 1007.09 1007.11 1007.01 1006.86 1006.87 1006.95 1006.96 1007.06 1007.15 1007.12 1007.64 1008.25 1008.73 1009.19
1008.42 1008.33 1008.32 1008.23 1008.05 1007.75 1007.52 1007.49 1007.41 1007.14 1006.93 1006.66 1006.18 1005.43 1005.20 1005.15 1005.08 1005.10 1005.09 1005.23 1005.27 1005.36 1005.41 1005.56 1005.85 1006.04 1006.35 1006.61 1006.85 1006.86 1006.90 1006.98 1006.98 1007.05 1007.01 1007.03 1007.18 1007.27 1007.40 1007.55 1007.96 1008.42 1008.87 1009.74
Wind_Speed
1 3 4 6 11 11 11 5 6 6 10 11 11 9 7 7 8 9 8 6 7 8 7 7 8 8 10 13 14 14 14 14 16 13 12 11 9 10 13 16 16 12 13 10
5 6 6 6 14 7 10 13 4 4 2 3 3 9 10 9 10 9 8 7 6 5 6 10 14 12 12 12 13 12 14 16 12 11 11 10 11 13 14 11 17 18 10 8
5 4 5 5 5 8 9 16 6 8 9 16 6 9 9 8 10 8 8 8 8 6 6 4 8 12 13 14 11 12 13 12 11 12 11 10 13 12 13 12 11 8 5 4
3 5 2 4 2 12 18 14 14 11 15 15 4 8 17 16 13 8 8 8 7 7 6 5 3 5 3 5 7 9 9 10 10 10 9 9 10 11 13 12 12 7 6 6
4 1 3 3 5 4 3 6 10 8 13 15 15 8 8 17 17 12 4 5 4 5 5 7 7 3 5 6 9 10 10 8 7 9 9 10 10 13 12 13 11 6 4 6
3 2 3 4 7 6 3 1 5 6 9 10 12 9 7 21 17 16 21 5 6 5 5 9 8 6 6 5 7 6 6 6 6 8 10 10 11 11 9 11 9 7 7 6
2 3 4 4 8 8 5 3 3 2 3 7 3 5 7 13 13 7 11 19 5 8 7 6 7 6 7 6 6 3 6 6 6 5 7 10 10 8 8 9 9 8 8 4
1 1 6 3 4 4 5 4 3 5 3 3 4 8 6 15 13 15 15 15 18 5 7 7 7 5 7 7 5 6 6 7 7 7 6 6 10 7 6 6 5 5 7 6
6 6 3 5 4 3 5 4 4 5 4 3 2 4 12 1 6 8 13 21 20 10 6 6 5 4 6 3 5 6 8 8 8 8 7 6 8 6 5 6 5 6 5 5
3 3 4 7 2 5 7 10 5 5 5 1 7 13 10 12 12 13 13 17 19 6 5 3 2 4 4 3 5 7 8 7 7 6 7 5 4 3 4 6 6 6 6 6
5 8 5 4 3 9 9 9 7 12 9 9 8 13 11 14 12 12 13 10 3 7 6 6 4 4 5 3 5 6 7 6 6 5 5 5 4 2 2 3 7 6 5 7
6 5 4 5 5 9 9 6 5 1 5 7 12 14 14 5 3 7 4 5 4 6 6 5 5 5 5 3 5 7 6 4 4 4 5 5 5 3 6 3 8 11 12 9
7 8 7 7 7 10 13 14 13 9 9 13 13 8 4 4 3 2 5 7 7 8 8 8 7 7 6 6 5 5 5 4 4 4 4 5 4 6 6 4 9 4 11 12
5 4 5 3 4 6 13 12 10 15 9 5 6 6 3 1 2 4 6 7 7 7 6 6 6 6 6 7 7 5 3 7 4 4 5 4 4 4 4 5 5 3 7 2
8 7 5 2 6 3 6 5 2 7 7 8 7 7 6 4 5 5 5 4 7 8 6 4 5 5 6 6 6 6 6 4 4 5 5 5 4 4 3 4 4 4 2 4
8 8 7 2 7 4 6 7 6 7 8 8 7 8 6 5 4 4 4 9 8 7 8 8 6 6 6 7 8 7 7 9 6 5 5 5 4 4 4 4 4 4 3 3
8 4 4 5 3 5 4 4 4 5 7 6 7 5 5 0 6 4 1 2 5 5 8 8 9 6 5 5 6 4 3 4 5 4 4 5 6 7 6 6 5 4 4 5
7 7 8 5 3 4 6 7 6 5 4 8 6 3 7 6 1 4 5 3 2 4 8 9 6 7 6 5 5 4 3 3 2 3 4 4 4 5 7 7 7 6 3 4
9 9 7 7 6 6 6 7 7 8 5 5 6 5 3 1 3 2 4 5 4 3 5 6 9 8 6 7 7 5 5 5 3 2 4 4 4 5 7 8 8 7 6 6
7 8 8 7 8 6 4 4 6 7 6 5 5 5 6 6 4 4 1 5 6 6 5 6 5 3 5 7 7 3 4 4 4 3 2 0 2 2 6 10 10 9 7 6
8 9 8 8 6 6 5 5 5 7 8 3 4 6 8 6 4 4 1 2 6 5 3 4 4 3 4 5 5 3 3 3 3 2 2 2 3 3 4 8 9 10 8 6
5 6 7 6 5 5 6 7 6 6 6 4 6 6 7 8 8 6 5 6 3 5 5 3 1 5 5 8 4 2 1 3 3 3 3 4 4 4 4 7 8 9 8 8
5 4 4 4 3 5 7 7 7 7 8 8 7 6 6 5 3 4 7 4 4 6 4 4 6 9 8 4 3 2 1 0 2 3 4 4 3 3 4 8 11 10 8 6
1 2 2 3 4 5 7 8 8 8 6 8 8 6 4 4 4 3 3 7 1 2 4 4 6 9 7 4 4 3 2 1 3 3 3 3 3 3 4 7 8 5 8 10
5 5 3 4 6 6 7 7 7 8 8 7 7 7 6 3 4 3 1 2 6 5 3 4 8 8 4 4 3 3 2 3 3 3 3 4 4 5 5 7 10 9 9 10
5 5 5 7 6 5 5 4 4 6 5 6 5 5 5 3 1 2 3 4 3 5 4 3 3 4 2 4 3 3 2 2 2 2 3 3 4 6 7 10 11 9 8 10
6 7 5 4 5 5 5 5 4 6 5 5 5 6 4 3 2 3 5 5 5 5 4 3 3 4 5 4 4 3 2 1 2 2 4 4 3 5 9 11 12 11 11 8
Wind_Direction
172 240 69 75 17 20 43 277 134 246 159 195 168 143 120 102 79 70 65 69 164 182 189 203 197 197 200 201 195 190 191 194 204 199 195 183 150 152 145 160 154 152 161 190
335 347 54 68 33 25 21 336 330 105 62 311 174 109 97 92 80 75 71 75 47 23 202 194 197 195 201 202 201 188 194 203 198 190 183 168 147 163 169 155 160 188 154 148
300 324 40 34 352 51 69 13 351 14 341 333 339 90 68 78 88 84 58 40 34 27 23 221 204 195 194 204 194 189 196 199 188 185 180 160 164 164 154 152 157 152 180 181
216 17 54 217 329 99 93 38 27 32 4 350 330 84 49 30 360 57 68 56 36 20 27 24 0 182 141 131 181 180 185 187 180 173 167 156 146 146 149 158 161 151 189 204
112 183 273 61 8 18 43 26 15 38 25 11 343 37 10 22 356 329 84 81 68 33 356 350 6 323 210 187 167 169 176 171 165 155 148 149 148 148 153 153 159 169 174 165
74 111 194 230 300 306 235 55 13 27 56 25 15 55 287 336 340 336 350 23 52 49 20 16 358 51 72 107 125 136 144 148 143 154 156 148 141 147 150 145 147 152 170 191
169 192 279 279 299 288 123 239 305 204 238 103 106 203 254 292 335 357 357 340 29 30 30 11 1 30 64 77 67 58 95 100 98 98 114 127 120 128 124 132 149 155 162 182
53 175 262 327 348 93 195 302 277 196 200 304 233 176 357 354 343 343 340 332 334 50 36 11 14 53 60 54 46 56 65 79 83 86 98 110 124 139 131 126 136 142 144 148
168 227 262 288 226 193 158 201 249 141 177 260 155 305 121 131 31 333 339 309 312 275 79 33 23 42 91 83 90 90 80 76 95 97 91 107 124 143 132 146 150 149 148 153
33 277 196 249 198 208 211 226 233 211 163 141 193 180 209 190 198 204 198 254 256 139 119 96 69 87 95 115 97 104 102 103 98 103 105 115 108 136 166 155 151 157 159 156
260 280 277 292 236 228 228 236 213 185 167 199 248 284 224 223 217 216 238 204 206 160 146 149 141 101 78 82 111 112 123 129 139 142 144 121 80 86 151 170 161 159 168 163
223 228 179 260 266 259 254 265 277 93 302 218 199 247 262 247 214 203 210 131 166 124 131 159 147 130 127 113 129 135 145 152 167 150 160 157 150 121 50 71 185 167 157 165
203 207 198 187 219 237 249 276 296 326 297 286 292 243 253 254 245 230 237 146 171 180 166 175 162 156 169 156 164 179 175 184 158 163 158 171 178 168 158 39 66 92 177 167
247 153 288 182 228 202 236 257 281 285 255 251 274 325 320 318 304 171 237 193 160 155 134 161 168 177 193 166 168 203 204 211 201 195 175 173 186 184 150 163 162 155 58 151
232 236 227 315 326 305 197 210 322 350 332 332 324 316 295 294 275 207 158 162 142 125 144 155 180 193 197 188 172 193 203 218 191 160 169 176 179 168 173 169 154 139 120 70
226 235 259 239 228 72 47 14 13 317 334 305 298 303 301 241 184 187 200 147 143 168 186 201 216 221 186 189 196 178 221 209 179 168 170 165 169 168 163 156 151 158 179 168
128 134 85 274 54 43 39 28 322 344 339 324 286 333 340 324 120 189 234 123 97 181 194 190 212 238 180 204 212 202 192 182 181 167 165 195 184 176 183 172 172 160 169 161
155 136 152 157 96 44 17 13 339 342 337 336 17 355 74 54 308 227 180 174 185 190 193 215 231 238 226 178 166 154 145 154 163 179 194 197 197 190 167 167 162 166 164 152
126 120 112 87 74 51 24 14 348 331 340 341 338 354 334 223 159 311 227 250 273 248 250 204 204 190 182 164 151 139 150 146 138 203 221 207 210 171 162 161 168 171 167 151
94 91 88 72 49 42 13 341 341 339 312 316 325 343 324 303 315 17 129 201 221 213 224 207 191 155 163 160 137 145 157 170 160 175 213 221 303 232 176 168 164 171 170 176
111 98 88 73 45 13 336 333 349 334 313 275 307 324 304 324 321 299 296 279 263 238 227 175 166 188 150 141 126 134 198 188 182 165 225 227 229 247 172 173 169 165 180 187
81 88 86 71 44 345 328 316 326 330 332 267 273 287 303 309 308 316 245 221 251 169 160 190 122 177 155 123 128 152 173 203 219 180 205 223 214 208 165 152 160 169 186 197
56 66 73 47 357 308 313 319 318 330 322 314 293 260 246 259 277 325 321 329 255 178 159 166 175 160 133 118 138 143 153 242 299 245 199 216 212 215 175 171 169 184 169 142
348 332 296 292 314 326 312 300 310 311 308 306 298 286 248 288 296 245 252 295 304 156 123 145 147 134 125 146 157 163 169 241 264 259 213 165 215 191 167 159 145 139 126 128
271 261 254 277 282 271 280 278 301 304 312 310 308 322 319 293 191 292 27 44 117 119 139 203 140 127 119 143 153 159 183 228 251 233 191 177 176 163 148 138 130 132 129 127
273 257 246 237 237 246 258 267 262 280 285 291 293 287 296 304 139 129 173 175 158 173 195 196 157 141 160 159 156 175 190 237 223 200 160 139 138 144 135 123 119 112 119 123
281 270 267 264 262 257 254 254 255 267 259 250 271 287 278 279 243 185 196 189 198 198 202 192 173 157 153 159 166 170 161 182 147 163 135 104 111 133 130 121 116 110 105 108